Location: Stockholm
(59.3333°N, 18.0500°E)
Time: 13:37:01
(UTC+02:00)

ISS - Pass Details

Date: 13 May 2021
Orbit: 417 x 422 km, 51.6° (Epoch: 14 May)

Event Time Altitude Azimuth Distance (km) Brightness Sun altitude
Exits shadow 00:32:07 15° 138° (SE) 1,216 -1.9 -12.3°
Drops below altitude 10° 00:33:21 10° 119° (ESE) 1,505 -1.2 -12.3°
Sets 00:35:54 0° 100° (E) 2,372 -0.1 -12.3°
